Regional Weather Roundup
Issued by NWS

Home | Current Version | Previous Version | Text Only | Print | Product List | Glossary On
Versions: 1 2 3 4 5 6 7 8 9 10 11 12 13 14 15 16 17 18 19 20 21 22 23 24 25 26 27 28 29 30 31 32 33 34 35 36 37 38 39 40 41 42 43 44 45 46 47 48 49 50
000
ASUS43 KFSD 040510
RWRSD

WEATHER ROUNDUP FOR SOUTH DAKOTA
NATIONAL WEATHER SERVICE SIOUX FALLS SD
1200 AM CDT TUE AUG 04 2015

NOTE: "FAIR" INDICATES FEW OR NO CLOUDS BELOW 12,000 FEET WITH NO
SIGNIFICANT WEATHER AND/OR OBSTRUCTIONS TO VISIBILITY.


SDZ001>005-009-010-012>017-040600-
NORTHWEST AND NORTH CENTRAL SOUTH DAKOTA

CITY           SKY/WX    TMP DP  RH WIND       PRES   REMARKS
BUFFALO          N/A     68  52  56 E10       29.92S
FAITH            N/A     70  50  49 SE14      29.97F
MOBRIDGE       PTCLDY    69  52  54 E12       29.94S
$$

SDZ012>016-024>037-041>051-057-063-072>074-040600-
SOUTHWEST AND SOUTH CENTRAL SOUTH DAKOTA

CITY           SKY/WX    TMP DP  RH WIND       PRES   REMARKS
RAPID CTY ARPT CLOUDY    69  59  70 E6        29.98F
PIERRE         PTCLDY    67  56  67 E7        29.94F
CUSTER         CLOUDY    64  55  72 E9        30.10F
ELLSWORTH AFB  CLOUDY    70  60  68 SE9       29.97F
PHILIP         MOCLDY    72  59  63 E8        29.95S
PINE RIDGE     MOCLDY    69  57  65 E14       29.94F
WINNER         MOCLDY    73  59  61 SE7       29.97S
$$

SDZ004>011-016>023-039-040-040600-
NORTHEAST SOUTH DAKOTA

CITY           SKY/WX    TMP DP  RH WIND       PRES   REMARKS
ABERDEEN       CLEAR     61  53  75 CALM      29.97S
WATERTOWN      CLEAR     63  52  67 CALM      29.99S
BROOKINGS      CLEAR     61  54  77 CALM      30.01S
SISSETON         N/A     55  51  86 W3        29.97R
$$

SDZ017-020-022-023-036>040-048>070-040600-
SOUTHEAST SOUTH DAKOTA

CITY           SKY/WX    TMP DP  RH WIND       PRES   REMARKS
SIOUX FALLS    PTCLDY    62  59  90 N3        29.98S
HURON          CLEAR     66  56  70 SE7       29.96S
CHAMBERLAIN    PTCLDY    65  57  77 E5        29.97S
MITCHELL       PTCLDY    65  57  75 E6        29.98R
YANKTON        PTCLDY    68  63  83 CALM      29.97S
$$

ABBREVIATIONS USED IN REMARKS
   TC - TEMPERATURE IN CELSIUS
  WCI - WIND CHILL INDEX
   HX - HEAT INDEX
  VSB - VISIBILITY



USA.gov is the U.S. government's official web portal to all federal, state and local government web resources and services.